This is the latest recevied weather packets stored in our database for station/object K5GHS-1. If no packets are shown the sender has not sent any weather packets the latest 10 day(s).
| Time | Temp. | Humidity | Pressure | Rain* | Wind** | Luminosity | Snow |
|---|---|---|---|---|---|---|---|
| 1777499002 | 16.67° C | 86% | 1010.7 hPa | 0 mm | - | 86 W/m² | - |
| 1777498697 | 16.67° C | 87% | 1010.9 hPa | 0 mm | - | 144 W/m² | - |
| 1777498394 | 16.67° C | 87% | 1010.9 hPa | 0 mm | - | 186 W/m² | - |
| 1777498091 | 16.67° C | 88% | 1011 hPa | 0 mm | - | 167 W/m² | - |
| 1777497788 | 16.67° C | 90% | 1011 hPa | 0 mm | - | 164 W/m² | - |
| 1777497485 | 16.67° C | 90% | 1011.2 hPa | 0 mm | - | 212 W/m² | - |
| 1777497181 | 16.67° C | 91% | 1011.4 hPa | 0 mm | - | 208 W/m² | - |
| 1777496878 | 16.11° C | 92% | 1011.8 hPa | 0 mm | - | 251 W/m² | - |
| 1777496575 | 16.11° C | 92% | 1011.8 hPa | 0 mm | - | 164 W/m² | - |
| 1777496271 | 15.56° C | 92% | 1011.7 hPa | 0 mm | - | 81 W/m² | - |
| 1777495967 | 16.11° C | 92% | 1011.4 hPa | 0 mm | - | 88 W/m² | - |
| 1777495663 | 16.67° C | 92% | 1011.4 hPa | 0 mm | - | 128 W/m² | - |
| 1777495359 | 16.67° C | 92% | 1011.7 hPa | 0 mm | - | 207 W/m² | - |
| 1777495056 | 16.67° C | 92% | 1011.6 hPa | 0 mm | - | 222 W/m² | - |
| 1777494754 | 16.11° C | 91% | 1011.8 hPa | 0 mm | - | 276 W/m² | - |
| 1777494451 | 16.67° C | 90% | 1012.6 hPa | 0 mm | - | 121 W/m² | - |
| 1777494147 | 16.67° C | 90% | 1012.5 hPa | 0 mm | - | 200 W/m² | - |
| 1777493844 | 16.67° C | 88% | 1012.6 hPa | 6.6 mm | - | 144 W/m² | - |
| 1777493543 | 16.67° C | 87% | 1013.4 hPa | 24.64 mm | - | 96 W/m² | - |
| 1777493240 | 17.22° C | 85% | 1013.2 hPa | 15.49 mm | - | 182 W/m² | - |
| 1777492936 | 16.67° C | 83% | 1013.8 hPa | 1.78 mm | - | 37 W/m² | - |
| 1777492632 | 16.67° C | 82% | 1014.2 hPa | 0 mm | - | 19 W/m² | - |
| 1777492328 | 16.67° C | 82% | 1013.5 hPa | 0 mm | - | 32 W/m² | - |
| 1777492025 | 16.67° C | 81% | 1013.2 hPa | 0 mm | - | 35 W/m² | - |
| 1777491721 | 17.22° C | 81% | 1013.4 hPa | 0 mm | - | 37 W/m² | - |
* Rain latest hour (hover to see other rain measurements)
** Current wind speed in m/s (hover to see current wind gust speed)